[[{"header":{"parameterUnit":"m.s-1","parameterCategory":1,"la1":30.2991,"la2":30.254,"lo1":-89.0895,"lo2":-89.0444,"dy":0.0017,"dx":0.0017,"nx":28,"ny":28,"refTime":"2024-02-15T03:00:00:Z","depth":0,"parameterNumber":2,"parameterNumberName":"U-component_of_WINDS"},"data":[0,0,0,0,0,0,0,0,0,0,0,0,0,0,0,0,0,0,0,0,0,0,0,0,0,0,0,0,0,0,0,0,0,0,0,0,0,0,0,0,0,0,0,0,0,0,0,0,0,0,0,0,0,0,0,0,0,0,-0.8951,-0.8951,0,-0.8958,-0.8958,-0.8958,-0.8885,-0.8883,-0.8881,-0.8879,-0.8886,-0.8888,-0.889,0,0,0,0,0,0,0,0,0,0,0,0,0,-0.8875,-0.8877,-0.8951,-0.8951,-0.8951,-0.8958,-0.8958,-0.8958,-0.8885,-0.8883,-0.888,-0.8878,-0.8886,-0.8888,-0.8891,0,0,0,0,0,0,0,0,0,0,0,0,0,-0.8898,-0.8877,-0.8951,-0.8915,-0.8912,-0.8958,-0.8958,-0.8958,-0.8886,-0.8882,-0.8879,-0.8877,-0.8885,-0.8888,-0.8891,-0.8971,0,0,-0.89,-0.8902,0,0,0,0,0,0,0,0,-0.8896,-0.89,-0.892,-0.8918,-0.8914,-0.8917,-0.8934,-0.8962,-0.8886,-0.8896,-0.8879,-0.8875,-0.8899,-0.8901,-0.8909,-0.8971,-0.8971,-0.8901,-0.8903,-0.8904,-0.8905,0,0,0,0,0,0,0,-0.8895,-0.89,-0.8953,-0.8921,-0.8917,-0.8899,-0.8899,-0.8939,-0.8914,-0.8895,-0.8889,-0.8891,-0.8897,-0.8906,-0.8908,-0.8971,-0.8901,-0.8903,-0.8905,-0.8906,-0.9099,-0.9102,0,0,0,0,0,0,-0.8898,-0.8899,-0.8953,-0.8954,-0.8898,-0.8903,-0.8903,-0.8919,-0.8914,-0.891,-0.8894,-0.8888,-0.8902,-0.8905,-0.8908,-0.9001,-0.8904,-0.8907,-0.8909,-0.9096,-0.91,-0.9103,0,0,0,0,0,0,-0.8897,-0.8904,-0.8953,-0.8925,-0.893,-0.8908,-0.8927,-0.8921,-0.893,-0.8913,-0.8908,-0.8907,-0.89,-0.8904,-0.8956,-0.9,-0.8908,-0.8911,-0.9092,-0.9097,-0.9102,-0.9187,0,0,0,0,0,0,-0.8895,-0.8903,-0.8933,-0.8926,-0.8932,-0.9,-0.8929,-0.8923,-0.8936,-0.8928,-0.8925,-0.8921,-0.8898,-0.8951,-0.8959,-0.9003,-0.8913,-0.9088,-0.9094,-0.91,-0.918,-0.9194,-0.9206,0,0,0,0,0,-0.8892,-0.8957,-0.8935,-0.8942,-0.8968,-0.9003,-0.9006,-0.8978,-0.894,-0.8969,-0.8958,-0.8921,-0.8994,-0.8957,-0.8965,-0.9011,-0.9085,-0.9093,-0.91,-0.9174,-0.9191,-0.9206,0,0,0,0,0,0,-0.897,-0.8956,-0.8931,-0.8995,-0.9001,-0.899,-0.9027,-0.8997,-0.9013,-0.9005,-0.897,-0.8969,-0.9027,-0.9024,-0.8983,-0.9087,-0.9033,-0.9042,-0.9087,-0.9103,-0.9116,-0.9115,-0.8916,0,0,0,0,0,-0.8995,-0.9024,-0.901,-0.9068,-0.9072,-0.905,-0.9063,-0.9041,-0.9045,-0.9047,-0.904,-0.9046,-0.907,-0.9087,-0.9108,-0.918,-0.9178,-0.9215,-0.9228,-0.9239,-0.9247,-0.9285,-0.9301,-0.9128,-0.9127,-0.9127,0,0,-0.9046,-0.9042,-0.9062,-0.9083,-0.9085,-0.9116,-0.9052,-0.9087,-0.911,-0.9053,-0.9101,-0.9096,-0.91,-0.9162,-0.9189,-0.9161,-0.9295,-0.9248,-0.9257,-0.9259,-0.9294,-0.931,-0.9325,-0.9132,-0.9132,-0.9131,0,0,-0.9155,-0.9155,-0.9203,-0.9206,-0.921,-0.9194,-0.9206,-0.92,-0.9195,-0.9243,-0.9201,-0.9227,-0.927,-0.9274,-0.9282,-0.9394,-0.936,-0.9402,-0.947,-0.9507,-0.9521,-0.9533,-0.9572,-0.9587,-0.941,-0.9411,-0.9411,0,-0.9218,-0.9263,-0.9232,-0.927,-0.9281,-0.9231,-0.9279,-0.9284,-0.9295,-0.9303,-0.9272,-0.9324,-0.9324,-0.9386,-0.9413,-0.9422,-0.9434,-0.9402,-0.9521,-0.9533,-0.9544,-0.9581,-0.9596,-0.9416,-0.9415,-0.9415,-0.9414,0,-0.934,-0.9372,-0.9411,-0.9422,-0.9437,-0.948,-0.9456,-0.9475,-0.9452,-0.944,-0.949,-0.9487,-0.9507,-0.9521,-0.9499,-0.958,-0.9563,-0.9527,-0.9472,-0.9566,-0.96,-0.9614,-0.9423,-0.9421,-0.942,-0.9418,0,0,-0.9497,-0.9491,-0.9506,-0.951,-0.9511,-0.9535,-0.9576,-0.9596,-0.9613,-0.9622,-0.9656,-0.9693,-0.966,-0.967,-0.9648,-0.968,-0.9769,-0.9641,-0.964,-0.9664,-0.9858,-0.9884,-0.9901,-0.9747,-0.9749,-0.9751,-0.9857,0,-0.9602,-0.9672,-0.9646,-0.9718,-0.9747,-0.97,-0.9737,-0.9741,-0.9732,-0.9755,-0.9744,-0.9771,-0.9726,-0.9731,-0.9762,-0.9751,-0.9807,-0.9744,-0.9777,-0.9779,-0.9777,-0.9919,-0.9946,-1.0047,-0.9871,-0.9873,-0.9875,0,-0.9734,-0.9749,-0.9824,-0.9819,-0.983,-0.9863,-0.9879,-0.9902,-0.9907,-0.9897,-0.9908,-0.9879,-0.992,-0.9865,-0.9921,-0.9878,-0.9891,-0.9888,-0.9891,-0.9892,-0.9832,-0.9923,-1.0078,-1.0093,-0.9895,-0.9894,-0.9892,0,-0.984,-0.9879,-0.9928,-0.9934,-0.993,-0.9954,-0.9954,-0.9955,-0.9969,-0.9983,-0.9991,-1.0011,-1.0021,-1.0036,-1.0013,-0.9976,-1.0072,-1.0016,-1.0065,-1.0066,-1.0086,-1.0085,-1.0244,-1.0097,-1.0096,-1.0096,-1.0096,0,-0.996,-1.0007,-0.9976,-1.0006,-1.0058,-1.0028,-1.008,-1.0075,-1.0077,-1.0106,-1.0067,-1.0095,-1.0064,-1.0089,-1.0071,-1.0119,-1.0125,-1.0118,-1.0113,-1.0121,-1.0122,-1.0128,-1.012,-1.01,-1.0099,-1.0098,-1.0098,0,-1.0086,-1.0067,-1.0118,-1.0111,-1.011,-1.0149,-1.0143,-1.0171,-1.0159,-1.0196,-1.0203,-1.0184,-1.0212,-1.0191,-1.0218,-1.0206,-1.027,-1.0255,-1.0268,-1.0264,-1.0314,-1.0309,-1.0482,-1.0503,-1.0343,-1.0344,-1.0346,0,-1.0163,-1.0198,-1.0195,-1.0212,-1.0214,-1.0241,-1.0255,-1.0227,-1.0243,-1.0251,-1.0278,-1.0303,-1.032,-1.0367,-1.0356,-1.0376,-1.0361,-1.042,-1.0364,-1.0371,-1.0361,-1.0359,-1.0362,-1.0431,-1.0433,-1.0435,-1.0436,0,-1.0301,-1.0291,-1.0312,-1.033,-1.0347,-1.0361,-1.037,-1.0386,-1.0358,-1.0378,-1.0406,-1.042,-1.0448,-1.0472,-1.0489,-1.0489,-1.0458,-1.0454,-1.0466,-1.0474,-1.048,-1.0477,-1.0298,-1.045,-1.0448,-1.0447,-1.0447,-1.0446,-1.0405,-1.0434,-1.0436,-1.0461,-1.0466,-1.0477,-1.0503,-1.0494,-1.0517,-1.0537,-1.052,-1.0553,-1.0557,-1.0577,-1.058,-1.0606,-1.0582,-1.06,-1.0604,-1.0609,-1.0616,-1.0478,-1.0609,-1.0609,-1.0608,-1.0608,-1.0608,0,-1.054,-1.054,-1.0563,-1.0579,-1.0599,-1.0568,-1.0578,-1.0596,-1.0626,-1.0633,-1.0651,-1.0683,-1.0707,-1.0699,-1.072,-1.0742,-1.0728,-1.0748,-1.0746,-1.0746,-1.0637,-1.0623,-1.0759,-1.0759,-1.0759,-1.0759,-1.0759,-1.0759,-1.0613,-1.0661,-1.0651,-1.0701,-1.07,-1.0732,-1.074,-1.075,-1.0755,-1.0792,-1.0812,-1.0806,-1.0807,-1.0828,-1.0848,-1.0845,-1.0854,-1.088,-1.0871,-1.0769,-1.0754,-1.074,-1.0727,-1.0882,-1.0882,-1.0978,-1.0979,-1.098]},{"header":{"parameterUnit":"m.s-1","parameterCategory":1,"la1":30.2991,"la2":30.254,"lo1":-89.0895,"lo2":-89.0444,"dy":0.0017,"dx":0.0017,"nx":28,"ny":28,"refTime":"2024-02-15T03:00:00:Z","depth":0,"parameterNumber":3,"parameterNumberName":"V-component_of_WINDS"},"data":[0,0,0,0,0,0,0,0,0,0,0,0,0,0,0,0,0,0,0,0,0,0,0,0,0,0,0,0,0,0,0,0,0,0,0,0,0,0,0,0,0,0,0,0,0,0,0,0,0,0,0,0,0,0,0,0,0,0,0.8171,0.8172,0,0.8194,0.8194,0.8195,0.8255,0.8256,0.8257,0.8259,0.828,0.8279,0.8278,0,0,0,0,0,0,0,0,0,0,0,0,0,0.8178,0.8177,0.8171,0.8172,0.8172,0.8194,0.8194,0.8195,0.8255,0.8256,0.8258,0.8259,0.828,0.8279,0.8278,0,0,0,0,0,0,0,0,0,0,0,0,0,0.8185,0.8177,0.8171,0.8204,0.8208,0.8194,0.8194,0.8195,0.8254,0.8256,0.8258,0.826,0.828,0.8279,0.8278,0.8234,0,0,0.8275,0.8275,0,0,0,0,0,0,0,0,0.8184,0.8185,0.8199,0.8202,0.8206,0.8224,0.8205,0.8208,0.8254,0.8236,0.8259,0.8261,0.8259,0.826,0.826,0.8235,0.8235,0.8275,0.8275,0.8274,0.8274,0,0,0,0,0,0,0,0.8184,0.8184,0.818,0.8199,0.8203,0.8218,0.8221,0.8205,0.8237,0.8238,0.8243,0.8245,0.8261,0.8261,0.8261,0.8236,0.8275,0.8274,0.8274,0.8273,0.8175,0.8173,0,0,0,0,0,0,0.8179,0.8183,0.818,0.8181,0.82,0.8216,0.822,0.8216,0.8237,0.8242,0.8243,0.8247,0.8262,0.8262,0.8262,0.8211,0.8274,0.8273,0.8273,0.8177,0.8174,0.8172,0,0,0,0,0,0,0.8179,0.8178,0.8179,0.8183,0.8185,0.8214,0.8209,0.8215,0.8215,0.8241,0.8246,0.8237,0.8263,0.8263,0.824,0.8212,0.8273,0.8272,0.8179,0.8176,0.8173,0.8108,0,0,0,0,0,0,0.8179,0.8178,0.8161,0.8183,0.8184,0.8157,0.8208,0.8214,0.8213,0.8219,0.8236,0.8241,0.8265,0.8241,0.8239,0.8212,0.8271,0.8182,0.8178,0.8174,0.8113,0.8103,0.8095,0,0,0,0,0,0.8179,0.8141,0.816,0.8159,0.8164,0.8155,0.8156,0.8184,0.8211,0.8194,0.8211,0.824,0.8216,0.8239,0.8237,0.8209,0.8184,0.8179,0.8174,0.8117,0.8105,0.8095,0,0,0,0,0,0,0.8115,0.8145,0.8166,0.8134,0.8142,0.8165,0.8145,0.8171,0.8171,0.8176,0.8211,0.8214,0.8186,0.8196,0.822,0.8167,0.8205,0.8199,0.8161,0.815,0.8142,0.8139,0.827,0,0,0,0,0,0.8097,0.8088,0.8115,0.8084,0.8087,0.8115,0.8112,0.8134,0.8143,0.8146,0.8161,0.8168,0.8162,0.8157,0.8153,0.8115,0.8119,0.8095,0.8086,0.8078,0.8073,0.8053,0.8042,0.8157,0.8157,0.8157,0,0,0.806,0.8076,0.8067,0.8072,0.808,0.8069,0.8117,0.8104,0.8095,0.8144,0.8123,0.8134,0.8144,0.8113,0.81,0.812,0.8042,0.8072,0.8066,0.8065,0.8047,0.8036,0.8027,0.8154,0.8154,0.8155,0,0,0.7987,0.7999,0.7974,0.7982,0.7995,0.8014,0.8008,0.8028,0.8037,0.8017,0.8053,0.8044,0.8033,0.8038,0.804,0.797,0.7997,0.7968,0.792,0.79,0.7891,0.7884,0.7858,0.7848,0.7963,0.7963,0.7962,0,0.794,0.7925,0.7958,0.7942,0.7943,0.7987,0.7963,0.7969,0.7978,0.7977,0.8,0.7987,0.7997,0.7968,0.7951,0.7951,0.7945,0.7965,0.789,0.7883,0.7876,0.7852,0.7842,0.7959,0.7959,0.796,0.796,0,0.7865,0.7855,0.7834,0.7843,0.7842,0.7821,0.7851,0.7845,0.7867,0.7884,0.7863,0.7877,0.7876,0.7871,0.7892,0.7845,0.7857,0.7884,0.7923,0.7861,0.7838,0.7829,0.7954,0.7955,0.7956,0.7957,0,0,0.7751,0.778,0.7772,0.7777,0.7794,0.7786,0.7768,0.7768,0.7762,0.7768,0.7753,0.7743,0.7769,0.7771,0.7793,0.7776,0.7719,0.7805,0.7806,0.7788,0.7667,0.7645,0.7634,0.7738,0.7736,0.7735,0.7666,0,0.7681,0.7652,0.7682,0.7647,0.7637,0.768,0.7664,0.7672,0.7688,0.7681,0.7699,0.7691,0.7726,0.7727,0.7712,0.7729,0.7695,0.7734,0.7723,0.7722,0.7717,0.7622,0.7599,0.7533,0.7657,0.7656,0.7655,0,0.7596,0.7598,0.7562,0.7582,0.7579,0.7564,0.7567,0.7561,0.7572,0.7584,0.7586,0.7614,0.7597,0.7636,0.7613,0.7639,0.7636,0.7644,0.7642,0.7641,0.7683,0.7617,0.7513,0.7502,0.7642,0.7643,0.7644,0,0.7514,0.7509,0.7487,0.749,0.7513,0.7501,0.7511,0.7524,0.7522,0.7524,0.7524,0.7524,0.7523,0.7523,0.7549,0.7575,0.7522,0.7564,0.7531,0.753,0.7517,0.7517,0.7409,0.7517,0.7517,0.7517,0.7518,0,0.7432,0.7408,0.745,0.7436,0.7411,0.7445,0.7419,0.7432,0.7443,0.7432,0.747,0.7458,0.7495,0.7488,0.7509,0.7486,0.7485,0.7494,0.75,0.749,0.7489,0.7488,0.7492,0.7515,0.7515,0.7516,0.7516,0,0.7336,0.7364,0.7342,0.7367,0.7372,0.7352,0.7373,0.736,0.7379,0.7365,0.7363,0.7392,0.7385,0.7413,0.741,0.7424,0.739,0.7404,0.7386,0.739,0.7355,0.7358,0.7242,0.7228,0.7346,0.7345,0.7344,0,0.7281,0.7264,0.7287,0.7283,0.729,0.7283,0.7282,0.7316,0.7313,0.7324,0.731,0.7307,0.7306,0.7293,0.7313,0.7311,0.7325,0.7284,0.7324,0.7315,0.7323,0.7323,0.7321,0.7275,0.7274,0.7273,0.7272,0,0.7181,0.7196,0.7193,0.7195,0.7193,0.7196,0.7202,0.7196,0.7232,0.7227,0.7221,0.722,0.7219,0.7214,0.7217,0.7226,0.7254,0.7259,0.7251,0.724,0.723,0.7234,0.7362,0.7261,0.7262,0.7263,0.7264,0.7264,0.7103,0.7089,0.7104,0.7099,0.7108,0.7112,0.7102,0.712,0.7116,0.7117,0.7138,0.7127,0.7139,0.7146,0.7152,0.7144,0.7163,0.7152,0.7149,0.7145,0.7139,0.7233,0.7145,0.7146,0.7146,0.7146,0.7146,0,0.7003,0.7015,0.7011,0.7018,0.7015,0.7044,0.7051,0.7046,0.7037,0.7046,0.7045,0.7038,0.7034,0.7055,0.7054,0.7043,0.7056,0.7042,0.7042,0.7044,0.7123,0.7129,0.7031,0.7031,0.7031,0.7031,0.7031,0.7031,0.6951,0.6929,0.6946,0.6929,0.6941,0.6932,0.6933,0.6938,0.6945,0.6936,0.6933,0.6947,0.6961,0.6961,0.6959,0.6965,0.6963,0.6943,0.6954,0.7027,0.7038,0.7049,0.7055,0.6943,0.6943,0.6875,0.6874,0.6874]}]]